Regional Weather Roundup
Issued by NWS

Home | Current Version | Previous Version | Graphics & Text | Print | Product List | Glossary On
Versions: 1 2 3 4 5 6 7 8 9 10 11 12 13 14 15 16 17 18 19 20 21 22 23 24 25 26 27 28 29 30 31 32 33 34 35 36 37 38 39 40 41 42 43 44 45 46 47 48 49 50
000
ASUS43 KOAX 061202
RWRNE

WEATHER ROUNDUP FOR NEBRASKA
NATIONAL WEATHER SERVICE OMAHA NE
600 AM CST SAT FEB 06 2016

NOTES: SATELLITE DATA IS BEING USED TO AUGMENT CLOUD COVER ABOVE
       12000 FEET.
       "FAIR" INDICATES FEW OR NO CLOUDS BELOW 12,000 FEET WITH NO
       SIGNIFICANT WEATHER AND/OR OBSTRUCTIONS TO VISIBILITY.

  * THESE STATIONS DO NOT REPORT WEATHER SUCH AS RAIN...SNOW OR FOG.

NEZ001>004-019>022-054>056-061300-
NEBRASKA PANHANDLE

CITY           SKY/WX    TMP DP  RH WIND       PRES   REMARKS
SCOTTSBLUFF    CLOUDY    21  13  71 N9        30.17F WCI  11
6HR MIN TEMP:  12; 6HR MAX TEMP:  21;

ALLIANCE       CLOUDY    15  10  80 W10       30.13F WCI   2
6HR MIN TEMP:   9; 6HR MAX TEMP:  15;

CHADRON        CLOUDY    21  15  78 SW7       30.13F WCI  12
6HR MIN TEMP:  19; 6HR MAX TEMP:  22;

SIDNEY         CLOUDY    14   7  73 W13       30.18F WCI   0
6HR MIN TEMP:  11; 6HR MAX TEMP:  20;

$$

NEZ057>060-069>072-079>082-061300-
SOUTHWEST NEBRASKA

CITY           SKY/WX    TMP DP  RH WIND       PRES   REMARKS
NORTH PLATTE   CLOUDY    10   4  76 NW5       30.21F WCI   2
6HR MIN TEMP:  10; 6HR MAX TEMP:  17;

IMPERIAL       CLOUDY    19   9  65 W15       30.22S WCI   5
6HR MIN TEMP:  16; 6HR MAX TEMP:  20;

MCCOOK         CLOUDY    12   8  84 W8        30.25F WCI   0
6HR MIN TEMP:  12; 6HR MAX TEMP:  20;

$$

NEZ005>010-023>029-035>040-094-061300-
NORTH CENTRAL NEBRASKA

CITY           SKY/WX    TMP DP  RH WIND       PRES   REMARKS
VALENTINE      CLEAR     21  15  78 W9        30.10F WCI  11
6HR MIN TEMP:  19; 6HR MAX TEMP:  24;

AINSWORTH      CLEAR     24  17  76 SW9       30.11F WCI  14
BROKEN BOW     CLOUDY    18  15  88 SW5       30.18S WCI  11
6HR MIN TEMP:  15; 6HR MAX TEMP:  23;

ORD            FOG       12  11  95 CALM      30.18F VSB 1/2
6HR MIN TEMP:  10; 6HR MAX TEMP:  25;

$$

NEZ041-046>049-061>064-073>077-083>087-061300-
SOUTH CENTRAL NEBRASKA

CITY           SKY/WX    TMP DP  RH WIND       PRES   REMARKS
GRAND ISLAND   CLOUDY    16  13  88 SW9       30.22F WCI   4
6HR MIN TEMP:  16; 6HR MAX TEMP:  31;

HASTINGS       CLOUDY    18  15  88 SW6       30.22F WCI  10
6HR MIN TEMP:  17; 6HR MAX TEMP:  29;

KEARNEY *      CLOUDY    19 -26  12 W12       30.22F WCI   7
$$

NEZ011>018-030>034-042>045-061300-
NORTHEAST NEBRASKA

CITY           SKY/WX    TMP DP  RH WIND       PRES   REMARKS
NORFOLK        CLOUDY    15  11  83 CALM      30.19F
6HR MIN TEMP:  14; 6HR MAX TEMP:  26;

COLUMBUS *     CLOUDY    10   0  61 CALM      30.22S
TEKAMAH        FOG       22  20  92 S5        30.24F VSB 1/4 WCI  16
6HR MIN TEMP:  20; 6HR MAX TEMP:  32;

$$

NEZ050>053-065>068-078-088>093-061300-
SOUTHEAST NEBRASKA

CITY           SKY/WX    TMP DP  RH WIND       PRES   REMARKS
LINCOLN        FOG       21  19  92 SW3       30.26F VSB 1/4
6HR MIN TEMP:  19; 6HR MAX TEMP:  35;

OMAHA EPPLEY   CLOUDY    29  27  92 CALM      30.25F
6HR MIN TEMP:  27; 6HR MAX TEMP:  32;

BEATRICE       CLEAR     25  24  97 W5        30.26F WCI  19
FALLS CITY     CLEAR     26  24  92 NW6       30.27R WCI  19
6HR MIN TEMP:  25; 6HR MAX TEMP:  30;

NEBRASKA CITY  MOCLDY    32  32 100 W5        30.26S WCI  27
$$

NEZ044-045-051>053-067-061300-
OMAHA AREA

CITY           SKY/WX    TMP DP  RH WIND       PRES   REMARKS
OMAHA EPPLEY   CLOUDY    29  27  92 CALM      30.25F
6HR MIN TEMP:  27; 6HR MAX TEMP:  32;

OFFUTT AFB     MOCLDY    26  26  99 NW1       30.24F
WAHOO          FOG       15  13  91 CALM      30.23F VSB 1/4
$$



USA.gov is the U.S. government's official web portal to all federal, state and local government web resources and services.